VTK225 UHMM-UHPP

Flight info

Callsign VTK225
Flight time 1h 18m
Altitude 35000
Route OSKET5E OSKET A812 BAKEN BAKEN5N
Aircraft A320/M-SDE3FGHIRWY/LB1

Departure

Time 2026-05-07 23:48
Airport Sokol Airport (UHMM)

Arrival

Time 2026-05-08 01:06
Airport Yelizovo Airport (UHPP)
Time Latitude Longitude Altitude Speed Heading
2026-05-07 23:32 59.91365 150.71873 583 ft 0 kts 183°
2026-05-07 23:44 59.91341 150.71869 583 ft 9 kts 188°
2026-05-07 23:44 59.91321 150.71739 583 ft 13 kts 275°
2026-05-07 23:44 59.91329 150.71494 583 ft 20 kts 272°
2026-05-07 23:44 59.91336 150.71205 583 ft 21 kts 272°
2026-05-07 23:45 59.91343 150.70901 583 ft 22 kts 273°
2026-05-07 23:45 59.91352 150.70583 583 ft 23 kts 273°
2026-05-07 23:45 59.91356 150.70384 583 ft 9 kts 271°
2026-05-07 23:45 59.91314 150.70301 583 ft 10 kts 210°
2026-05-07 23:46 59.91261 150.70239 583 ft 8 kts 211°
2026-05-07 23:46 59.91202 150.70168 581 ft 11 kts 211°
2026-05-07 23:46 59.91153 150.70127 581 ft 5 kts 164°
2026-05-07 23:46 59.91146 150.70165 581 ft 0 kts 91°
2026-05-07 23:47 59.91136 150.70660 582 ft 72 kts 93°
2026-05-07 23:47 59.91096 150.72081 581 ft 131 kts 93°
2026-05-07 23:47 59.91037 150.74203 602 ft 173 kts 94°
2026-05-07 23:48 59.90969 150.76591 1204 ft 173 kts 93°
2026-05-07 23:48 59.90908 150.78981 1927 ft 172 kts 92°
2026-05-07 23:48 59.90847 150.81382 2580 ft 179 kts 91°
2026-05-07 23:48 59.90781 150.84004 2845 ft 201 kts 91°
2026-05-07 23:49 59.90704 150.86956 3112 ft 225 kts 91°
2026-05-07 23:49 59.90612 150.90232 3531 ft 247 kts 92°
2026-05-07 23:49 59.90513 150.93644 4388 ft 250 kts 93°
2026-05-07 23:49 59.90409 150.97116 5329 ft 251 kts 93°
2026-05-07 23:50 59.90304 151.00604 6236 ft 254 kts 94°
2026-05-07 23:50 59.90123 151.04127 7034 ft 258 kts 105°
2026-05-07 23:50 59.89161 151.07148 7799 ft 266 kts 139°
2026-05-07 23:50 59.87560 151.09069 8621 ft 272 kts 154°
2026-05-07 23:51 59.85780 151.10435 9442 ft 277 kts 159°
2026-05-07 23:51 59.83939 151.11649 10187 ft 281 kts 160°
2026-05-07 23:51 59.82018 151.12937 10523 ft 303 kts 159°
2026-05-07 23:51 59.79956 151.14417 10744 ft 326 kts 158°
2026-05-07 23:52 59.77772 151.16093 10996 ft 345 kts 156°
2026-05-07 23:52 59.75525 151.17901 11574 ft 351 kts 156°
2026-05-07 23:52 59.73284 151.19751 12262 ft 356 kts 156°
2026-05-07 23:52 59.70986 151.21671 12971 ft 360 kts 156°
2026-05-07 23:53 59.68665 151.23615 13658 ft 363 kts 156°
2026-05-07 23:53 59.66323 151.25568 14246 ft 367 kts 156°
2026-05-07 23:53 59.63956 151.27535 14833 ft 371 kts 156°
2026-05-07 23:53 59.61559 151.29522 15416 ft 376 kts 156°
2026-05-07 23:54 59.59134 151.31518 15982 ft 380 kts 156°
2026-05-07 23:54 59.56677 151.33536 16527 ft 384 kts 156°
2026-05-07 23:54 59.54200 151.35567 17068 ft 387 kts 156°
2026-05-07 23:54 59.51698 151.37621 17579 ft 392 kts 156°
2026-05-07 23:55 59.49198 151.39666 18088 ft 395 kts 156°
2026-05-07 23:55 59.46646 151.41745 18545 ft 399 kts 156°
2026-05-07 23:55 59.44075 151.43837 19027 ft 401 kts 157°
2026-05-07 23:55 59.41489 151.45944 19499 ft 404 kts 157°
2026-05-07 23:56 59.38881 151.48059 19975 ft 406 kts 157°
2026-05-07 23:56 59.36263 151.50181 20435 ft 408 kts 157°
2026-05-07 23:56 59.33631 151.52318 20893 ft 411 kts 157°
2026-05-07 23:56 59.31052 151.54749 21337 ft 413 kts 149°
2026-05-07 23:57 59.28649 151.57845 21784 ft 415 kts 145°
2026-05-07 23:57 59.26255 151.61046 22231 ft 417 kts 145°
2026-05-07 23:57 59.23846 151.64261 22668 ft 420 kts 145°
2026-05-07 23:57 59.21433 151.67473 23103 ft 422 kts 145°
2026-05-07 23:58 59.18998 151.70700 23482 ft 424 kts 145°
2026-05-07 23:58 59.16576 151.73904 23812 ft 426 kts 145°
2026-05-07 23:58 59.14115 151.77161 24141 ft 429 kts 146°
2026-05-07 23:58 59.11640 151.80434 24456 ft 431 kts 146°
2026-05-07 23:59 59.09143 151.83721 24783 ft 434 kts 146°
2026-05-07 23:59 59.06631 151.87021 25102 ft 436 kts 146°
2026-05-07 23:59 59.04117 151.90342 25417 ft 438 kts 146°
2026-05-07 23:59 59.01592 151.93689 25726 ft 441 kts 146°
2026-05-08 00:00 58.99056 151.97056 26026 ft 443 kts 146°
2026-05-08 00:00 58.96504 152.00433 26310 ft 445 kts 146°
2026-05-08 00:00 58.93966 152.03780 26599 ft 447 kts 146°
2026-05-08 00:00 58.91383 152.07171 26886 ft 450 kts 146°
2026-05-08 00:01 58.88792 152.10563 27165 ft 452 kts 146°
2026-05-08 00:01 58.86181 152.13973 27421 ft 454 kts 146°
2026-05-08 00:01 58.83548 152.17403 27677 ft 457 kts 146°
2026-05-08 00:01 58.80903 152.20848 27946 ft 459 kts 146°
2026-05-08 00:02 58.78257 152.24290 28204 ft 461 kts 146°
2026-05-08 00:02 58.75602 152.27744 28572 ft 460 kts 146°
2026-05-08 00:02 58.72949 152.31186 28956 ft 459 kts 146°
2026-05-08 00:02 58.70289 152.34622 29321 ft 459 kts 146°
2026-05-08 00:03 58.67636 152.38040 29698 ft 459 kts 147°
2026-05-08 00:03 58.64979 152.41458 30019 ft 458 kts 147°
2026-05-08 00:03 58.62335 152.44853 30317 ft 458 kts 147°
2026-05-08 00:03 58.59714 152.48207 30628 ft 458 kts 147°
2026-05-08 00:04 58.57055 152.51595 30896 ft 458 kts 147°
2026-05-08 00:04 58.54421 152.55033 31177 ft 458 kts 146°
2026-05-08 00:04 58.51815 152.58552 31454 ft 459 kts 145°
2026-05-08 00:04 58.49226 152.62119 31738 ft 459 kts 144°
2026-05-08 00:05 58.46641 152.65700 32027 ft 459 kts 144°
2026-05-08 00:05 58.44052 152.69271 32320 ft 459 kts 144°
2026-05-08 00:05 58.41450 152.72826 32605 ft 459 kts 145°
2026-05-08 00:05 58.38844 152.76352 32870 ft 460 kts 146°
2026-05-08 00:06 58.36256 152.79827 33113 ft 461 kts 146°
2026-05-08 00:06 58.33634 152.83342 33373 ft 461 kts 146°
2026-05-08 00:06 58.30974 152.86898 33657 ft 461 kts 146°
2026-05-08 00:06 58.28389 152.90350 33901 ft 461 kts 146°
2026-05-08 00:07 58.25762 152.93852 34136 ft 461 kts 146°
2026-05-08 00:07 58.23136 152.97351 34362 ft 461 kts 146°
2026-05-08 00:07 58.20508 153.00862 34591 ft 461 kts 146°
2026-05-08 00:07 58.17884 153.04368 34713 ft 462 kts 146°
2026-05-08 00:08 58.12536 153.11210 34742 ft 465 kts 148°
2026-05-08 00:08 58.07141 153.17834 34739 ft 465 kts 148°
2026-05-08 00:09 58.01711 153.24506 34733 ft 465 kts 148°
2026-05-08 00:09 57.96306 153.31217 34734 ft 465 kts 147°
2026-05-08 00:10 57.90895 153.37927 34725 ft 465 kts 148°
2026-05-08 00:10 57.85472 153.44609 34727 ft 466 kts 148°
2026-05-08 00:11 57.80076 153.51222 34726 ft 466 kts 148°
2026-05-08 00:11 57.74645 153.57865 34728 ft 466 kts 148°
2026-05-08 00:12 57.69220 153.64518 34727 ft 466 kts 148°
2026-05-08 00:12 57.63789 153.71175 34725 ft 466 kts 148°
2026-05-08 00:13 57.58353 153.77794 34724 ft 466 kts 148°
2026-05-08 00:13 57.52939 153.84332 34719 ft 466 kts 148°
2026-05-08 00:14 57.47483 153.90889 34720 ft 466 kts 148°
2026-05-08 00:14 57.42036 153.97430 34708 ft 466 kts 148°
2026-05-08 00:15 57.36587 154.03970 34706 ft 466 kts 148°
2026-05-08 00:15 57.31131 154.10472 34704 ft 466 kts 148°
2026-05-08 00:16 57.25709 154.16916 34703 ft 466 kts 148°
2026-05-08 00:16 57.20246 154.23393 34694 ft 466 kts 149°
2026-05-08 00:17 57.14772 154.29813 34696 ft 466 kts 149°
2026-05-08 00:17 57.09271 154.36162 34697 ft 467 kts 149°
2026-05-08 00:18 57.03792 154.42462 34704 ft 467 kts 149°
2026-05-08 00:18 56.98282 154.48808 34711 ft 467 kts 149°
2026-05-08 00:19 56.92775 154.55136 34701 ft 467 kts 149°
2026-05-08 00:19 56.87270 154.61436 34699 ft 467 kts 149°
2026-05-08 00:20 56.81757 154.67717 34700 ft 467 kts 150°
2026-05-08 00:20 56.76266 154.73938 34699 ft 467 kts 150°
2026-05-08 00:21 56.70726 154.80194 34700 ft 467 kts 150°
2026-05-08 00:21 56.66127 154.85379 34704 ft 468 kts 150°
2026-05-08 00:22 56.60592 154.91603 34710 ft 468 kts 150°
2026-05-08 00:22 56.55043 154.97807 34712 ft 468 kts 150°
2026-05-08 00:23 56.49493 155.03993 34697 ft 468 kts 150°
2026-05-08 00:23 56.43984 155.10113 34706 ft 468 kts 150°
2026-05-08 00:24 56.38430 155.16265 34693 ft 468 kts 150°
2026-05-08 00:24 56.32867 155.22402 34692 ft 468 kts 150°
2026-05-08 00:25 56.27347 155.28478 34695 ft 467 kts 150°
2026-05-08 00:25 56.21794 155.34564 34683 ft 467 kts 150°
2026-05-08 00:26 56.16240 155.40641 34683 ft 468 kts 150°
2026-05-08 00:26 56.10695 155.46801 34685 ft 468 kts 150°
2026-05-08 00:27 56.05204 155.52925 34692 ft 468 kts 150°
2026-05-08 00:27 55.99670 155.59068 34692 ft 468 kts 150°
2026-05-08 00:28 55.94117 155.65193 34688 ft 469 kts 150°
2026-05-08 00:28 55.88550 155.71293 34688 ft 469 kts 150°
2026-05-08 00:29 55.82979 155.77377 34685 ft 469 kts 150°
2026-05-08 00:29 55.77445 155.83394 34674 ft 469 kts 151°
2026-05-08 00:30 55.71864 155.89455 34681 ft 470 kts 151°
2026-05-08 00:30 55.66279 155.95505 34688 ft 470 kts 151°
2026-05-08 00:31 55.60693 156.01528 34692 ft 470 kts 151°
2026-05-08 00:31 55.55098 156.07556 34677 ft 471 kts 151°
2026-05-08 00:32 55.49528 156.13528 34690 ft 471 kts 151°
2026-05-08 00:32 55.43912 156.19517 34696 ft 472 kts 151°
2026-05-08 00:33 55.38291 156.25503 34699 ft 472 kts 151°
2026-05-08 00:33 55.32650 156.31467 34702 ft 473 kts 152°
2026-05-08 00:34 55.27004 156.37396 34716 ft 473 kts 152°
2026-05-08 00:34 55.21352 156.43311 34715 ft 473 kts 152°
2026-05-08 00:35 55.15685 156.49216 34720 ft 473 kts 152°
2026-05-08 00:35 55.10063 156.55063 34720 ft 473 kts 152°
2026-05-08 00:36 55.04411 156.60961 34708 ft 473 kts 152°
2026-05-08 00:36 54.98751 156.66854 34715 ft 474 kts 152°
2026-05-08 00:37 54.93077 156.72710 34720 ft 474 kts 152°
2026-05-08 00:38 54.84558 156.81451 34710 ft 474 kts 152°
2026-05-08 00:38 54.78877 156.87269 34714 ft 474 kts 153°
2026-05-08 00:39 54.73190 156.93073 34714 ft 475 kts 153°
2026-05-08 00:39 54.67527 156.98836 34719 ft 475 kts 153°
2026-05-08 00:40 54.61827 157.04618 34708 ft 475 kts 153°
2026-05-08 00:40 54.56116 157.10393 34714 ft 476 kts 153°
2026-05-08 00:41 54.50381 157.16159 34718 ft 477 kts 153°
2026-05-08 00:41 54.44646 157.21918 34723 ft 478 kts 153°
2026-05-08 00:42 54.38939 157.27638 34723 ft 477 kts 153°
2026-05-08 00:42 54.33193 157.33372 34721 ft 478 kts 153°
2026-05-08 00:43 54.27443 157.39093 34725 ft 478 kts 153°
2026-05-08 00:43 54.21686 157.44801 34724 ft 478 kts 153°
2026-05-08 00:44 54.15923 157.50481 34709 ft 478 kts 153°
2026-05-08 00:44 54.10190 157.56121 34710 ft 478 kts 153°
2026-05-08 00:45 54.04424 157.61825 34708 ft 479 kts 153°
2026-05-08 00:45 53.98661 157.67516 34703 ft 479 kts 153°
2026-05-08 00:46 53.92890 157.73191 34698 ft 477 kts 154°
2026-05-08 00:46 53.90046 157.75985 34599 ft 466 kts 154°
2026-05-08 00:46 53.87297 157.78684 34258 ft 458 kts 154°
2026-05-08 00:46 53.84557 157.81365 33857 ft 453 kts 154°
2026-05-08 00:47 53.81835 157.84019 33404 ft 449 kts 154°
2026-05-08 00:47 53.79127 157.86657 32932 ft 445 kts 154°
2026-05-08 00:47 53.76456 157.89246 32480 ft 440 kts 154°
2026-05-08 00:47 53.73808 157.91791 32035 ft 435 kts 154°
2026-05-08 00:48 53.71185 157.94297 31566 ft 431 kts 155°
2026-05-08 00:48 53.68584 157.96772 31077 ft 426 kts 155°
2026-05-08 00:48 53.66048 157.99289 30362 ft 422 kts 149°
2026-05-08 00:48 53.63741 158.02312 29663 ft 418 kts 144°
2026-05-08 00:49 53.61512 158.05392 28813 ft 411 kts 143°
2026-05-08 00:49 53.59320 158.08422 28002 ft 404 kts 143°
2026-05-08 00:49 53.57168 158.11394 27223 ft 398 kts 143°
2026-05-08 00:49 53.55045 158.14319 26467 ft 391 kts 143°
2026-05-08 00:50 53.52953 158.17191 25735 ft 385 kts 143°
2026-05-08 00:50 53.50888 158.20021 25009 ft 379 kts 142°
2026-05-08 00:50 53.48879 158.22770 24314 ft 374 kts 142°
2026-05-08 00:50 53.46875 158.25508 23627 ft 369 kts 142°
2026-05-08 00:51 53.44898 158.28209 22767 ft 366 kts 141°
2026-05-08 00:51 53.42887 158.30956 21338 ft 378 kts 142°
2026-05-08 00:51 53.40840 158.33749 20286 ft 379 kts 142°
2026-05-08 00:51 53.38797 158.36524 19399 ft 376 kts 143°
2026-05-08 00:52 53.36772 158.39271 18551 ft 373 kts 143°
2026-05-08 00:52 53.34764 158.41995 17721 ft 369 kts 144°
2026-05-08 00:52 53.32777 158.44689 16864 ft 365 kts 144°
2026-05-08 00:52 53.30819 158.47341 16039 ft 360 kts 144°
2026-05-08 00:53 53.28887 158.49954 15220 ft 355 kts 144°
2026-05-08 00:53 53.27001 158.52504 14451 ft 351 kts 144°
2026-05-08 00:53 53.25126 158.55038 13992 ft 338 kts 144°
2026-05-08 00:53 53.23352 158.57440 13735 ft 321 kts 144°
2026-05-08 00:54 53.21634 158.59756 13199 ft 314 kts 145°
2026-05-08 00:54 53.19941 158.62026 12569 ft 310 kts 144°
2026-05-08 00:54 53.18267 158.64261 11973 ft 305 kts 144°
2026-05-08 00:54 53.16618 158.66464 11397 ft 303 kts 144°
2026-05-08 00:55 53.14961 158.68650 11012 ft 302 kts 147°
2026-05-08 00:55 53.13149 158.70375 10552 ft 300 kts 160°
2026-05-08 00:55 53.11241 158.71662 10033 ft 294 kts 160°
2026-05-08 00:55 53.09355 158.72946 9379 ft 292 kts 160°
2026-05-08 00:56 53.07485 158.74226 8689 ft 289 kts 160°
2026-05-08 00:56 53.05631 158.75496 7966 ft 288 kts 160°
2026-05-08 00:56 53.03821 158.76735 7663 ft 272 kts 160°
2026-05-08 00:56 53.02139 158.77891 7527 ft 252 kts 160°
2026-05-08 00:57 53.00546 158.78986 7419 ft 245 kts 160°
2026-05-08 00:57 52.98971 158.80048 7303 ft 243 kts 164°
2026-05-08 00:57 52.97348 158.80238 7196 ft 232 kts 201°
2026-05-08 00:57 52.96045 158.78786 6870 ft 229 kts 238°
2026-05-08 00:58 52.95378 158.76465 6415 ft 225 kts 250°
2026-05-08 00:58 52.94798 158.74090 5990 ft 220 kts 251°
2026-05-08 00:58 52.94229 158.71765 5567 ft 215 kts 250°
2026-05-08 00:58 52.93669 158.69488 5176 ft 211 kts 250°
2026-05-08 00:59 52.93118 158.67255 4796 ft 208 kts 250°
2026-05-08 00:59 52.92585 158.65055 4417 ft 203 kts 254°
2026-05-08 00:59 52.92595 158.62806 4105 ft 194 kts 294°
2026-05-08 00:59 52.93499 158.61245 4098 ft 191 kts 332°
2026-05-08 01:00 52.94736 158.60407 4106 ft 191 kts 333°
2026-05-08 01:00 52.95923 158.59562 3987 ft 180 kts 333°
2026-05-08 01:00 52.97044 158.58779 3777 ft 174 kts 333°
2026-05-08 01:00 52.98163 158.58007 3569 ft 169 kts 333°
2026-05-08 01:01 52.99224 158.57278 3359 ft 165 kts 333°
2026-05-08 01:01 53.00286 158.56548 3164 ft 161 kts 333°
2026-05-08 01:01 53.01297 158.55853 2969 ft 158 kts 333°
2026-05-08 01:01 53.02304 158.55161 2773 ft 155 kts 333°
2026-05-08 01:02 53.03290 158.54483 2580 ft 152 kts 332°
2026-05-08 01:02 53.04257 158.53818 2407 ft 149 kts 333°
2026-05-08 01:02 53.05212 158.53161 2203 ft 148 kts 332°
2026-05-08 01:02 53.06152 158.52514 2007 ft 144 kts 333°
2026-05-08 01:03 53.07073 158.51880 1816 ft 141 kts 332°
2026-05-08 01:03 53.07974 158.51258 1648 ft 139 kts 332°
2026-05-08 01:03 53.08854 158.50653 1470 ft 134 kts 334°
2026-05-08 01:03 53.09703 158.50067 1293 ft 132 kts 335°
2026-05-08 01:04 53.10553 158.49480 1118 ft 132 kts 336°
2026-05-08 01:04 53.11395 158.48898 961 ft 130 kts 335°
2026-05-08 01:04 53.12231 158.48321 806 ft 131 kts 336°
2026-05-08 01:04 53.13067 158.47743 666 ft 131 kts 336°
2026-05-08 01:05 53.13911 158.47138 475 ft 132 kts 337°
2026-05-08 01:05 53.14763 158.46553 336 ft 132 kts 338°
2026-05-08 01:05 53.15613 158.45968 175 ft 132 kts 338°
2026-05-08 01:05 53.16418 158.45411 136 ft 114 kts 338°
2026-05-08 01:06 53.17011 158.45004 135 ft 68 kts 338°
2026-05-08 01:06 53.17311 158.44797 137 ft 36 kts 338°
2026-05-08 01:06 53.17508 158.44661 137 ft 18 kts 337°
2026-05-08 01:06 53.17586 158.44596 137 ft 11 kts 311°
2026-05-08 01:07 53.17570 158.44472 127 ft 15 kts 245°
2026-05-08 01:07 53.17519 158.44269 121 ft 22 kts 248°
2026-05-08 01:07 53.17458 158.44025 123 ft 24 kts 244°
2026-05-08 01:07 53.17372 158.43778 125 ft 25 kts 240°
2026-05-08 01:08 53.17282 158.43521 138 ft 26 kts 239°
2026-05-08 01:08 53.17192 158.43265 139 ft 26 kts 239°
2026-05-08 01:08 53.17126 158.43081 141 ft 8 kts 239°
2026-05-08 01:08 53.17105 158.43022 139 ft 6 kts 239°
2026-05-08 01:09 53.17078 158.42948 146 ft 8 kts 239°
2026-05-08 01:09 53.17046 158.42857 140 ft 10 kts 239°
2026-05-08 01:09 53.17025 158.42797 141 ft 0 kts 239°
2026-05-08 01:09 53.17023 158.42793 141 ft 0 kts 239°
2026-05-08 01:10 53.17022 158.42790 141 ft 3 kts 238°
2026-05-08 01:10 53.16997 158.42763 140 ft 5 kts 191°
2026-05-08 01:10 53.16967 158.42747 141 ft 4 kts 222°
2026-05-08 01:10 53.16952 158.42707 141 ft 4 kts 240°
2026-05-08 01:11 53.16941 158.42672 140 ft 3 kts 240°
2026-05-08 01:11 53.16936 158.42660 141 ft 0 kts 240°